Phuket, Thailand

8:06 PM +07 on December 17, 2017 (GMT +0700)
Phuket International

Weather History for VTSP - February, 2011

Change the Weather History Date:

Wednesday, February 9, 2011

  Actual Average Record
Temperature  
Mean Temperature 80 °F -  
Max Temperature 87 °F 91 °F 100 °F (1998)
Min Temperature 73 °F 75 °F 66 °F (2017)
Cooling Degree Days 15    
Growing Degree Days 30 (Base 50)    
Moisture  
Dew Point 73 °F    
Average Humidity 77    
Maximum Humidity 94    
Minimum Humidity 54    
Precipitation  
Precipitation 0.00 in 0.05 in - ()
Sea Level Pressure  
Sea Level Pressure 29.73 in    
Wind  
Wind Speed 3 mph ()    
Max Wind Speed 10 mph    
Max Gust Speed -    
Visibility 4.6 miles    
Events      
Averages and records for this station are not official NWS values.
T = Trace of Precipitation, MM = Missing Value Source: Averaged Metar Reports

Daily Weather History Graph

Daily Weather History Graph

Search for Another Location

Airport or City:

Trip Planner

Search our weather history database for the weather conditions in past years. The results will help you decide how hot, cold, wet, or windy it might be!

Date:

Astronomy

Feb. 09, 2011 Rise Set
Actual Time 6:46 AM +07 6:35 PM +07
Civil Twilight 6:24 AM +07 6:57 PM +07
Nautical Twilight 5:59 AM +07 7:22 PM +07
Astronomical Twilight 5:34 AM +07 7:47 PM +07
Moon 10:32 AM +07 (2/9) 11:12 PM +07 (2/9)
Length of Visible Light 12h 32m
Length of Day
11h 49m
Waxing Crescent, 30% of the Moon is Illuminated
Feb 9
Waxing Crescent
Feb 11
First Quarter
Feb 18
Full
Feb 25
Last Quarter
Mar 5
New

Hourly Weather History & Observations

Time (+07) Temp. Heat Index Dew Point Humidity Pressure Visibility Wind Dir Wind Speed Gust Speed Precip Events Conditions
12:00 AM 80.6 °F 84.6 °F 71.6 °F 74% 29.74 in 5.0 mi NW 6.9 mph - N/A   Scattered Clouds
12:30 AM 80.6 °F 85.4 °F 73.4 °F 79% 29.74 in 5.0 mi NW 6.9 mph - N/A   Scattered Clouds
1:00 AM 78 °F - 75 °F 88% 29.70 in 5 mi Calm Calm - -   Mist
1:00 AM 80.6 °F 84.6 °F 71.6 °F 74% 29.74 in 5.0 mi NW 3.5 mph - N/A   Scattered Clouds
1:30 AM 78.8 °F - 71.6 °F 78% 29.71 in 5.0 mi Variable 2.3 mph - N/A   Scattered Clouds
2:00 AM 77.0 °F - 73.4 °F 89% 29.71 in 5.0 mi Calm Calm - N/A   Scattered Clouds
2:30 AM 77.0 °F - 71.6 °F 83% 29.71 in 5.0 mi Calm Calm - N/A   Scattered Clouds
3:00 AM 75.2 °F - 71.6 °F 89% 29.71 in 5.0 mi Calm Calm - N/A   Scattered Clouds
3:30 AM 75.2 °F - 71.6 °F 89% 29.71 in 5.0 mi Calm Calm - N/A   Scattered Clouds
4:00 AM 75.2 °F - 71.6 °F 89% 29.68 in 4.3 mi Calm Calm - N/A   Scattered Clouds
4:30 AM 75.2 °F - 71.6 °F 89% 29.71 in 4.3 mi Calm Calm - N/A   Scattered Clouds
5:00 AM 75.2 °F - 73.4 °F 94% 29.71 in 4.3 mi Variable 1.2 mph - N/A   Scattered Clouds
5:30 AM 75.2 °F - 71.6 °F 89% 29.71 in 4.3 mi Calm Calm - N/A   Scattered Clouds
6:00 AM 75.2 °F - 71.6 °F 89% 29.71 in 4.3 mi Calm Calm - N/A   Scattered Clouds
6:30 AM 75.2 °F - 71.6 °F 89% 29.74 in 4.3 mi Calm Calm - N/A   Scattered Clouds
7:00 AM 75 °F - 73 °F 92% 29.71 in 4 mi Calm Calm - -   Mist
7:00 AM 75.2 °F - 71.6 °F 89% 29.74 in 3.7 mi Calm Calm - N/A   Scattered Clouds
7:30 AM 75.2 °F - 73.4 °F 94% 29.74 in 3.7 mi Variable 1.2 mph - N/A   Scattered Clouds
8:00 AM 78.8 °F - 75.2 °F 89% 29.77 in 3.7 mi Variable 2.3 mph - N/A   Scattered Clouds
8:30 AM 80.6 °F 84.6 °F 71.6 °F 74% 29.77 in 3.7 mi ENE 3.5 mph - N/A   Scattered Clouds
9:00 AM 82.4 °F 88.2 °F 73.4 °F 74% 29.80 in 4.3 mi ENE 3.5 mph - N/A   Scattered Clouds
9:30 AM 84.2 °F 90.9 °F 73.4 °F 70% 29.80 in 4.3 mi East 3.5 mph - N/A   Scattered Clouds
10:00 AM 86.0 °F 93.4 °F 73.4 °F 66% 29.80 in 4.3 mi Variable 3.5 mph - N/A   Scattered Clouds
10:30 AM 86.0 °F 93.4 °F 73.4 °F 66% 29.80 in 4.3 mi ENE 4.6 mph - N/A   Scattered Clouds
11:00 AM 86.0 °F 93.4 °F 73.4 °F 66% 29.80 in 4.3 mi ENE 4.6 mph - N/A   Scattered Clouds
11:30 AM 87.8 °F 95.6 °F 73.4 °F 62% 29.77 in 4.3 mi ENE 5.8 mph - N/A   Scattered Clouds
12:00 PM 86.0 °F 93.4 °F 73.4 °F 66% 29.77 in 4.3 mi Variable 6.9 mph - N/A   Scattered Clouds
12:30 PM 86.0 °F 93.4 °F 73.4 °F 66% 29.77 in 4.3 mi Variable 6.9 mph - N/A   Scattered Clouds
1:00 PM 88 °F - 73 °F 54% 29.78 in 4 mi Calm Calm - -   Mist
1:00 PM 87.8 °F 95.6 °F 73.4 °F 62% 29.74 in 4.3 mi East 6.9 mph - N/A   Scattered Clouds
1:30 PM 86.0 °F 93.4 °F 73.4 °F 66% 29.71 in 4.3 mi West 6.9 mph - N/A   Scattered Clouds
2:00 PM 86.0 °F 93.4 °F 73.4 °F 66% 29.71 in 4.3 mi West 8.1 mph - N/A   Scattered Clouds
2:30 PM 87.8 °F 95.6 °F 73.4 °F 62% 29.71 in 4.3 mi West 10.4 mph - N/A   Scattered Clouds
3:30 PM 87.8 °F 95.6 °F 73.4 °F 62% 29.68 in 4.3 mi West 10.4 mph - N/A   Scattered Clouds
4:30 PM 86.0 °F 93.4 °F 73.4 °F 66% 29.68 in 4.3 mi West 9.2 mph - N/A   Scattered Clouds
5:00 PM 86.0 °F 93.4 °F 73.4 °F 66% 29.65 in 4.3 mi West 6.9 mph - N/A   Scattered Clouds
5:30 PM 84.2 °F 90.9 °F 73.4 °F 70% 29.68 in 4.3 mi West 9.2 mph - N/A   Scattered Clouds
6:00 PM 84.2 °F 90.9 °F 73.4 °F 70% 29.68 in 4.3 mi WNW 9.2 mph - N/A   Scattered Clouds
6:30 PM 84.2 °F 89.6 °F 71.6 °F 66% 29.68 in 4.3 mi WNW 8.1 mph - N/A   Scattered Clouds
7:00 PM 84 °F - 74 °F 64% 29.67 in 4 mi Calm Calm - -   Mist
7:00 PM 82.4 °F 87.2 °F 71.6 °F 70% 29.71 in 4.3 mi WNW 6.9 mph - N/A   Scattered Clouds
8:00 PM 80.6 °F 85.4 °F 73.4 °F 79% 29.71 in 4.3 mi West 4.6 mph - N/A   Scattered Clouds
8:30 PM 80.6 °F 85.4 °F 73.4 °F 79% 29.71 in 5.6 mi West 5.8 mph - N/A   Scattered Clouds
9:00 PM 80.6 °F 85.4 °F 73.4 °F 79% 29.74 in 6.2 mi WNW 5.8 mph - N/A   Scattered Clouds
9:30 PM 80.6 °F 85.4 °F 73.4 °F 79% 29.74 in 6.2 mi West 3.5 mph - N/A   Scattered Clouds
10:00 PM 77.0 °F - 73.4 °F 89% 29.74 in 6.2 mi Calm Calm - N/A   Scattered Clouds
10:30 PM 77.0 °F - 73.4 °F 89% 29.74 in 6.2 mi Calm Calm - N/A   Partly Cloudy
11:00 PM 77.0 °F - 73.4 °F 89% 29.74 in 6.2 mi Calm Calm - N/A   Scattered Clouds
11:30 PM 78.8 °F - 73.4 °F 83% 29.74 in 6.2 mi Calm Calm - N/A   Scattered Clouds